Location: Demmingen
(48.6757°N, 10.4375°E)
Time: 09:03:52
(UTC+00:00)

USA 267 - Pass Details

Date: 22 August 2024
Orbit: 1096 x 1111 km, 123.1° (Epoch: 03 September)

Event Time Altitude Azimuth Distance (km) Brightness Sun altitude
Exits shadow 21:20:43 - 214° (SW) 3,018 5.3 -24.3°
Reaches altitude 10° 21:21:10 10° 218° (SW) 2,953 5.3 -24.4°
Maximum altitude 21:23:41 12° 241° (WSW) 2,781 5.4 -24.6°
Drops below altitude 10° 21:26:13 10° 264° (W) 2,964 5.8 -24.8°
Sets 21:30:40 0° 293° (WNW) 3,932 7.0 -25.2°
